Flag for China Weather past 2 weeks in Foochow, Fujian, China

Now
75 °F

Overcast.


Feels Like: 75 °F
Forecast: 76 / 83 °F
Wind: 22 mph from Northeast

Location: Fuzhou Airport

Current Time: Jul 8, 2015 at 11:19:06 AM

Latest Report: Jul 8, 2015 at 10:00 AM


Visibility: N/A

Pressure: 29.59 "Hg

Humidity: 89%

Dew point: 72 °F

Location of FoochowLocation

Historic Weather in Foochow — Graph

°F

Foochow temperature yesterday

Maximum temperature yesterday: 75 °F (at 9:00 AM)
Minimum temperature yesterday: 72 °F (at 2:00 AM)
Average temperature yesterday: 74 °F

Past Weeks' High & Low Weather Summary

 TemperatureHumidityPressure
High91 °F (Jun 26, 1:00 PM)100% (Jul 4, 4:00 AM)29.80 "Hg (Jul 4, 4:00 AM)
Low70 °F (Jul 4, 7:00 PM)63% (Jun 29, 3:00 PM)29.50 "Hg (Jul 1, 2:00 PM)
Average81 °F84%29.66 "Hg
* Reported Jun 23 10:00 AM — Jul 8 10:00 AM, Foochow, Weather by CustomWeather, © 2015

Note: Actual official high and low records may vary slightly from our data, if they occured in-between our weather recording intervals... More about our weather records

Advertising

Foochow weather history for previous 24 hours

 ConditionsComfort  
Time TempWeatherWind HumidityBarometerVisibility
10:00 AM
Wed, Jul 8
75 °FOvercast.22 mph89%29.59 "HgN/A
9:00 AM75 °FOvercast.20 mph89%29.59 "HgN/A
8:00 AM75 °FLight rain. Overcast.15 mph89%29.59 "HgN/A
7:00 AM75 °FLight rain. Overcast.15 mph89%29.59 "HgN/A
6:00 AM75 °FPartly sunny.15 mph83%29.59 "HgN/A
5:00 AM75 °FOvercast.13 mph83%29.59 "HgN/A
4:00 AM75 °FOvercast.13 mph83%29.56 "HgN/A
3:00 AM75 °FOvercast.15 mph83%29.56 "HgN/A
2:00 AM73 °FOvercast.13 mph94%29.56 "HgN/A
1:00 AM73 °FLight rain. Mostly cloudy.15 mph94%29.59 "Hg4 mi
12:00 AM73 °FLight rain. Mostly cloudy.15 mph94%29.62 "Hg4 mi
11:00 PM
Tue, Jul 7
75 °FMostly cloudy.17 mph89%29.62 "Hg6 mi
10:00 PM73 °FMostly cloudy.17 mph94%29.62 "Hg6 mi
9:00 PM73 °FMostly cloudy.15 mph94%29.62 "Hg6 mi
8:00 PM73 °FMostly cloudy.17 mph94%29.62 "Hg4 mi
7:00 PM73 °FLight rain. Mostly cloudy.15 mph94%29.62 "Hg4 mi
6:00 PM73 °FMostly cloudy.13 mph94%29.59 "HgN/A
5:00 PM73 °FMostly cloudy.13 mph94%29.56 "HgN/A
4:00 PM73 °FMostly cloudy.13 mph94%29.59 "HgN/A
3:00 PM75 °FOvercast.13 mph83%29.59 "HgN/A
2:00 PM73 °FOvercast.13 mph89%29.59 "HgN/A
1:00 PM75 °FOvercast.15 mph83%29.59 "HgN/A
12:00 PM75 °FMore clouds than sun.15 mph83%29.59 "HgN/A
11:00 AM75 °FOvercast.13 mph83%29.62 "HgN/A
Weather by CustomWeather, © 2015

See weather overviewHow to use our weather pages